User: anonymous   Login
Location: Bohy
(49.9380°N, 13.5753°E)
Time: 01:39:55
(UTC+00:00)
Language:

Cosmos 1538 Rocket - Orbit

View from above orbital plane
View from above orbital plane
View from above satellite
View from above satellite

Ground track
Ground track

The orbit data is extracted from the following two-line orbital elements,

1 14760U 84019B   25198.69985853  .00000164  00000-0  63865-4 0  9991
2 14760  74.0431 103.3015 0028211 315.9040  43.9864 14.37023479167411
Epoch (UTC): 17 July 2025 16:47:47
Eccentricity: 0.0028211
inclination: 74.0431°
perigee height: 748 km
apogee height: 788 km
right ascension of ascending node: 103.3015°
argument of perigee: 315.9040°
revolutions per day: 14.37023479
mean anomaly at epoch: 43.9864°
orbit number at epoch: 16741

The dashed part of the orbit path shows where the satellite is in the earth's shadow,  

DLR